Showing default

TIANMU-1 10, 57402

Orbit data source: Space-Track

TIANMU-1 10, 57402 is a payload satellite owned by Hangtian Tianmu (CN) in SSO that was launched on Thu, 20 Jul 2023 UTC via a KUAIZHOU-1A launch vehicle from the Jiuquan Satellite Launch Center, China (JSC). Payload-class satellites include a variety of spacecraft equipped with specific instruments for various scientific and technological missions. These include communications satellites like Starlink; space stations such as the ISS; scientific satellites like the Hubble; Earth observation satellites from companies like Planet Labs, Umbra, and HawkEye 360; GPS; miniature CubeSats for education and research; and military/defense satellites.

Loading next visibility...
Identifier
57402, 2023-101D
Orbit
SSO
Country
Flag of CNCN / PRC
Related business
Manufacturer
Hangtian Tianmu
Mission
Operational Commercial Weather
Bus & Motor
TIANMU, Unknown motor
Mass
50 kg wet, ~50 kg dry
Launch date (UTC)
2023-07-20 (3 years ago)
Launch vehicle
KUAIZHOU-1A
Launch site
Jiuquan Satellite Launch Center, China (JSC)
Object type
Payload
Rocket body
Debris
Shape & HBR
Box, 0.8 m
Radar Cross Section
2.000 m², Large (>1 m²)

Expand to show TLE details & history
Last TLE update: 23 hours ago

TLE from 23 hours ago
0 TIANMU-1 10
1 57402U 23101D   26172.46563515  .00005026  00000-0  17632-3 0  9993
2 57402  97.2615 223.2743 0006346 115.1029 245.0871 15.29857439162291
Epoch: 2026-06-21T11:10Z
TLE epoch observation values (Epoch: 2026-06-21T11:10:30.876Z)
Latitude
-0.00005°
Longitude
145.98015°
Altitude
481.181 km
Speed
7.624 km/s
True Right ascension
14h 53m 05s
True Declination
0° 00' 00"
Sunlit
Object was in full shadow at epoch
Visualization orbit readout
Latitude
Unknown
Longitude
Unknown
Altitude
Unknown
Speed
Unknown
Apparent Right ascension
Unknown
Apparent Declination
Unknown
Sunlit
N/A
Visualization observer readout
Local Sidereal Time
21:29:10
Azimuth
Unknown
Elevation
Unknown
Doppler factor
Unknown
Orbital elements
Apogee altitude
477.532 km
Perigee altitude
468.837 km
Semi-major axis
6,851.322 km
Eccentricity
0.00063
Inclination
97.2615°
RAAN
223.2743°
Arg. of periapsis
115.1029°
True anomaly
245.02117°
Mean anomaly
245.0871°
Eccentric anomaly
245.05413°
Mean motion
3.8272 °/min
Orbital period
94.06 mins
BSTAR
0.00017632
Loading maneuver chart data...
Computing Atmospheric mass density...
Loading historical data...
Loading historical data...
Loading historical data...
Loading historical data...
Loading historical data...
Loading historical data...
Loading historical data...
Other satellites on launch #101 in the year 2023 (2023-07-20 UTC)

Documentation

Showing up to 5 results
|